DLH2281 LFKB-EDDM

Flight info

Callsign DLH2281
Flight time 1h 4m
Altitude 37000
Route MOULE L146 ELB DCT BETMU/N0443F380 DCT BORMI DCT NAXAV DCT BEXOR DCT SOTOV/N0377F240 T101 BETOS BETOS1A
Aircraft A321/M-SDE2E3FGIJ1LORWXYZ/HB1

Departure

Time 2026-05-04 13:50
Airport Bastia-Poretta International airport (LFKB)

Arrival

Time 2026-05-04 14:54
Airport Munich Airport (EDDM)
Time Latitude Longitude Altitude Speed Heading
2026-05-04 13:23 42.54888 9.48149 38 ft 0 kts 282°
2026-05-04 13:42 42.54886 9.48166 37 ft 3 kts 282°
2026-05-04 13:43 42.54881 9.48192 36 ft 3 kts 282°
2026-05-04 13:43 42.54877 9.48218 35 ft 3 kts 263°
2026-05-04 13:43 42.54877 9.48243 35 ft 3 kts 288°
2026-05-04 13:43 42.54868 9.48265 35 ft 3 kts 341°
2026-05-04 13:44 42.54861 9.48268 33 ft 0 kts 333°
2026-05-04 13:45 42.54863 9.48267 34 ft 1 kts 335°
2026-05-04 13:45 42.54875 9.48261 35 ft 4 kts 341°
2026-05-04 13:45 42.54927 9.48241 32 ft 10 kts 349°
2026-05-04 13:46 42.55003 9.48228 35 ft 11 kts 346°
2026-05-04 13:46 42.55084 9.48195 38 ft 14 kts 343°
2026-05-04 13:46 42.55194 9.48149 38 ft 20 kts 343°
2026-05-04 13:46 42.55339 9.48088 33 ft 23 kts 342°
2026-05-04 13:47 42.55499 9.48021 32 ft 25 kts 343°
2026-05-04 13:47 42.55674 9.47948 31 ft 27 kts 343°
2026-05-04 13:47 42.55839 9.47878 27 ft 19 kts 343°
2026-05-04 13:47 42.55935 9.47902 25 ft 15 kts 56°
2026-05-04 13:48 42.55979 9.48047 23 ft 18 kts 62°
2026-05-04 13:48 42.56045 9.48049 23 ft 10 kts 336°
2026-05-04 13:48 42.56121 9.48027 23 ft 13 kts 325°
2026-05-04 13:48 42.56223 9.47964 21 ft 18 kts 322°
2026-05-04 13:49 42.56317 9.47890 21 ft 11 kts 22°
2026-05-04 13:49 42.56309 9.47942 21 ft 4 kts 175°
2026-05-04 13:49 42.56259 9.47958 21 ft 15 kts 162°
2026-05-04 13:49 42.55900 9.48109 27 ft 93 kts 162°
2026-05-04 13:50 42.55063 9.48460 40 ft 156 kts 162°
2026-05-04 13:50 42.53945 9.48912 619 ft 164 kts 162°
2026-05-04 13:50 42.53051 9.49762 1376 ft 167 kts 120°
2026-05-04 13:50 42.52950 9.51371 1753 ft 190 kts 72°
2026-05-04 13:51 42.53605 9.53050 1982 ft 214 kts 63°
2026-05-04 13:51 42.54363 9.54910 2227 ft 238 kts 63°
2026-05-04 13:51 42.55186 9.56981 2702 ft 256 kts 63°
2026-05-04 13:51 42.56035 9.59145 3462 ft 263 kts 63°
2026-05-04 13:52 42.57777 9.63632 5104 ft 271 kts 64°
2026-05-04 13:52 42.58643 9.65884 5886 ft 275 kts 64°
2026-05-04 13:52 42.59532 9.68199 6674 ft 278 kts 63°
2026-05-04 13:53 42.60433 9.70542 7447 ft 282 kts 63°
2026-05-04 13:53 42.61341 9.72913 8218 ft 285 kts 64°
2026-05-04 13:53 42.62173 9.75366 8971 ft 288 kts 73°
2026-05-04 13:54 42.63124 9.80691 10390 ft 297 kts 78°
2026-05-04 13:54 42.63603 9.83529 10605 ft 320 kts 78°
2026-05-04 13:54 42.64650 9.89675 11509 ft 341 kts 78°
2026-05-04 13:55 42.65193 9.92839 12149 ft 346 kts 77°
2026-05-04 13:55 42.66294 9.99280 13411 ft 354 kts 77°
2026-05-04 13:55 42.66850 10.02549 14021 ft 358 kts 77°
2026-05-04 13:56 42.67412 10.05856 14616 ft 361 kts 77°
2026-05-04 13:56 42.67978 10.09196 15208 ft 365 kts 77°
2026-05-04 13:56 42.69897 10.15581 16333 ft 373 kts 50°
2026-05-04 13:57 42.71842 10.17901 16887 ft 375 kts 30°
2026-05-04 13:57 42.74255 10.19219 17432 ft 376 kts 12°
2026-05-04 13:58 42.81987 10.21632 19042 ft 384 kts 12°
2026-05-04 13:58 42.87241 10.23278 20078 ft 390 kts 12°
2026-05-04 13:58 42.89895 10.24118 20590 ft 393 kts 12°
2026-05-04 13:59 42.92570 10.24968 21066 ft 396 kts 12°
2026-05-04 13:59 42.94350 10.25534 21370 ft 397 kts 12°
2026-05-04 13:59 42.99774 10.27262 22265 ft 403 kts 12°
2026-05-04 14:00 43.02512 10.28140 22701 ft 405 kts 12°
2026-05-04 14:00 43.08039 10.29910 23534 ft 411 kts 12°
2026-05-04 14:00 43.10833 10.30803 23940 ft 413 kts 12°
2026-05-04 14:01 43.13638 10.31702 24347 ft 416 kts 12°
2026-05-04 14:01 43.16463 10.32608 24748 ft 418 kts 12°
2026-05-04 14:01 43.22159 10.34435 25523 ft 422 kts 12°
2026-05-04 14:02 43.25029 10.35356 25889 ft 425 kts 12°
2026-05-04 14:02 43.27914 10.36283 26267 ft 427 kts 12°
2026-05-04 14:02 43.30815 10.37214 26634 ft 429 kts 12°
2026-05-04 14:02 43.33732 10.38152 26993 ft 431 kts 12°
2026-05-04 14:03 43.36660 10.39094 27348 ft 433 kts 12°
2026-05-04 14:03 43.39603 10.40047 27696 ft 435 kts 12°
2026-05-04 14:03 43.42557 10.41008 28034 ft 437 kts 12°
2026-05-04 14:03 43.45527 10.41973 28378 ft 439 kts 12°
2026-05-04 14:04 43.51502 10.43915 29032 ft 443 kts 12°
2026-05-04 14:04 43.54512 10.44893 29342 ft 445 kts 12°
2026-05-04 14:04 43.57536 10.45873 29657 ft 447 kts 12°
2026-05-04 14:05 43.63622 10.47849 30257 ft 451 kts 12°
2026-05-04 14:05 43.66677 10.48847 30554 ft 453 kts 12°
2026-05-04 14:05 43.69752 10.49852 30832 ft 455 kts 12°
2026-05-04 14:06 43.72834 10.50857 31099 ft 456 kts 12°
2026-05-04 14:06 43.75927 10.51868 31359 ft 458 kts 12°
2026-05-04 14:06 43.79036 10.52885 31605 ft 459 kts 12°
2026-05-04 14:06 43.82149 10.53905 31845 ft 461 kts 12°
2026-05-04 14:07 43.85270 10.54927 32140 ft 460 kts 12°
2026-05-04 14:07 43.88386 10.55950 32475 ft 459 kts 12°
2026-05-04 14:07 43.91489 10.56972 32782 ft 458 kts 12°
2026-05-04 14:07 43.94589 10.57993 33101 ft 458 kts 12°
2026-05-04 14:08 43.97683 10.59013 33408 ft 457 kts 12°
2026-05-04 14:08 44.00770 10.60031 33716 ft 456 kts 12°
2026-05-04 14:08 44.03856 10.61047 34010 ft 455 kts 12°
2026-05-04 14:08 44.06934 10.62062 34299 ft 454 kts 12°
2026-05-04 14:09 44.13079 10.64093 34862 ft 454 kts 12°
2026-05-04 14:09 44.16149 10.65113 35132 ft 453 kts 12°
2026-05-04 14:10 44.22273 10.67150 35667 ft 452 kts 12°
2026-05-04 14:10 44.25328 10.68167 35935 ft 451 kts 12°
2026-05-04 14:10 44.28382 10.69187 36182 ft 451 kts 12°
2026-05-04 14:10 44.31437 10.70204 36428 ft 451 kts 12°
2026-05-04 14:11 44.34486 10.71221 36662 ft 451 kts 12°
2026-05-04 14:11 44.40543 10.73240 37359 ft 444 kts 11°
2026-05-04 14:11 44.43543 10.74241 37636 ft 442 kts 11°
2026-05-04 14:12 44.46534 10.75237 37851 ft 442 kts 11°
2026-05-04 14:12 44.49524 10.76235 38054 ft 441 kts 12°
2026-05-04 14:12 44.55498 10.78244 38156 ft 441 kts 11°
2026-05-04 14:13 44.58484 10.79246 38137 ft 441 kts 11°
2026-05-04 14:13 44.64450 10.81261 38122 ft 441 kts 12°
2026-05-04 14:14 44.70420 10.83170 38112 ft 440 kts
2026-05-04 14:14 44.79467 10.85319 38112 ft 440 kts
2026-05-04 14:15 44.91513 10.88188 38106 ft 441 kts
2026-05-04 14:16 45.00575 10.90486 38097 ft 441 kts
2026-05-04 14:17 45.09643 10.92763 38093 ft 441 kts
2026-05-04 14:18 45.18714 10.95027 38084 ft 441 kts
2026-05-04 14:19 45.30805 10.98065 38082 ft 441 kts
2026-05-04 14:19 45.36853 10.99588 38082 ft 441 kts
2026-05-04 14:20 45.42904 11.01117 38082 ft 441 kts
2026-05-04 14:20 45.48951 11.02655 38091 ft 441 kts
2026-05-04 14:21 45.58021 11.04965 38083 ft 441 kts
2026-05-04 14:21 45.64065 11.06505 38091 ft 441 kts
2026-05-04 14:22 45.70110 11.08046 38097 ft 441 kts
2026-05-04 14:22 45.76157 11.09598 38105 ft 441 kts
2026-05-04 14:23 45.85217 11.11919 38124 ft 441 kts
2026-05-04 14:24 45.91256 11.13467 38143 ft 441 kts
2026-05-04 14:24 45.97299 11.15031 38153 ft 441 kts
2026-05-04 14:25 46.03338 11.16591 38162 ft 441 kts
2026-05-04 14:25 46.12316 11.19626 38177 ft 442 kts 14°
2026-05-04 14:26 46.18251 11.21929 38182 ft 442 kts 13°
2026-05-04 14:26 46.24167 11.24137 38176 ft 442 kts 13°
2026-05-04 14:27 46.27154 11.25226 37995 ft 442 kts 13°
2026-05-04 14:27 46.30130 11.26304 37748 ft 441 kts 13°
2026-05-04 14:27 46.33104 11.27377 37496 ft 440 kts 13°
2026-05-04 14:27 46.36077 11.28453 37246 ft 440 kts 13°
2026-05-04 14:28 46.39045 11.29535 36994 ft 440 kts 13°
2026-05-04 14:28 46.42013 11.30622 36615 ft 439 kts 13°
2026-05-04 14:28 46.45002 11.31462 36046 ft 436 kts
2026-05-04 14:28 46.48021 11.31637 35483 ft 433 kts 355°
2026-05-04 14:29 46.53931 11.30466 34565 ft 425 kts 349°
2026-05-04 14:29 46.59731 11.29124 33656 ft 418 kts 349°
2026-05-04 14:30 46.62594 11.28467 33211 ft 415 kts 349°
2026-05-04 14:30 46.65429 11.27815 32760 ft 411 kts 349°
2026-05-04 14:30 46.71035 11.26516 31870 ft 404 kts 349°
2026-05-04 14:31 46.73802 11.25872 31432 ft 401 kts 349°
2026-05-04 14:31 46.79267 11.24596 30563 ft 394 kts 349°
2026-05-04 14:32 46.84637 11.23340 29720 ft 387 kts 349°
2026-05-04 14:32 46.87290 11.22717 29299 ft 384 kts 349°
2026-05-04 14:32 46.89917 11.22101 28896 ft 380 kts 349°
2026-05-04 14:32 46.92517 11.21496 28497 ft 376 kts 349°
2026-05-04 14:33 46.95112 11.21135 28110 ft 373 kts 358°
2026-05-04 14:33 46.97698 11.21281 27720 ft 370 kts
2026-05-04 14:33 47.00253 11.21464 27358 ft 365 kts
2026-05-04 14:33 47.02772 11.21635 27006 ft 360 kts
2026-05-04 14:34 47.05271 11.21799 26623 ft 359 kts
2026-05-04 14:34 47.07759 11.21961 26250 ft 357 kts
2026-05-04 14:34 47.10234 11.22124 25881 ft 355 kts
2026-05-04 14:34 47.12698 11.22290 25510 ft 353 kts
2026-05-04 14:35 47.15149 11.22456 25140 ft 352 kts
2026-05-04 14:35 47.17586 11.22619 24750 ft 350 kts
2026-05-04 14:35 47.20011 11.22784 24365 ft 348 kts
2026-05-04 14:35 47.22392 11.22944 23985 ft 346 kts
2026-05-04 14:36 47.24821 11.23104 23591 ft 344 kts
2026-05-04 14:36 47.27210 11.23264 23201 ft 342 kts
2026-05-04 14:36 47.29580 11.23425 22813 ft 340 kts
2026-05-04 14:36 47.31910 11.23584 22439 ft 339 kts
2026-05-04 14:37 47.34256 11.23744 22038 ft 337 kts
2026-05-04 14:37 47.36589 11.23902 21643 ft 335 kts
2026-05-04 14:37 47.38910 11.24062 21251 ft 333 kts
2026-05-04 14:37 47.41210 11.24218 20879 ft 331 kts
2026-05-04 14:38 47.43504 11.24373 20485 ft 329 kts
2026-05-04 14:38 47.45782 11.24531 20088 ft 327 kts
2026-05-04 14:38 47.48047 11.24687 19708 ft 325 kts
2026-05-04 14:38 47.50299 11.24839 19323 ft 323 kts
2026-05-04 14:39 47.52538 11.24992 18948 ft 322 kts
2026-05-04 14:39 47.54769 11.25144 18565 ft 320 kts
2026-05-04 14:39 47.56990 11.25220 18183 ft 318 kts 359°
2026-05-04 14:40 47.61494 11.25271 17467 ft 326 kts 359°
2026-05-04 14:40 47.63744 11.25295 17092 ft 322 kts 359°
2026-05-04 14:40 47.65970 11.25318 16712 ft 318 kts 359°
2026-05-04 14:40 47.68174 11.25337 16377 ft 314 kts 359°
2026-05-04 14:41 47.70350 11.25357 16000 ft 312 kts 359°
2026-05-04 14:41 47.72514 11.25376 15602 ft 310 kts 359°
2026-05-04 14:41 47.76880 11.25410 14390 ft 320 kts 359°
2026-05-04 14:42 47.81339 11.25431 13428 ft 320 kts 359°
2026-05-04 14:42 47.83558 11.25440 12979 ft 318 kts 359°
2026-05-04 14:42 47.85761 11.25447 12551 ft 315 kts 359°
2026-05-04 14:43 47.87945 11.25451 12105 ft 313 kts 359°
2026-05-04 14:43 47.90120 11.25449 11657 ft 312 kts 359°
2026-05-04 14:43 47.92283 11.25447 11226 ft 310 kts 359°
2026-05-04 14:43 47.94431 11.25438 10814 ft 308 kts 359°
2026-05-04 14:44 47.96562 11.25419 10407 ft 305 kts 359°
2026-05-04 14:44 47.98662 11.25394 10113 ft 299 kts 359°
2026-05-04 14:44 48.00035 11.25374 9877 ft 297 kts 359°
2026-05-04 14:44 48.02093 11.25340 9488 ft 295 kts 359°
2026-05-04 14:45 48.04138 11.25298 9114 ft 293 kts 359°
2026-05-04 14:45 48.06169 11.25247 8713 ft 291 kts 359°
2026-05-04 14:45 48.08183 11.25190 8429 ft 289 kts 359°
2026-05-04 14:45 48.10193 11.25130 8256 ft 289 kts 359°
2026-05-04 14:46 48.12208 11.25069 8088 ft 289 kts 359°
2026-05-04 14:46 48.14211 11.25011 7928 ft 288 kts 359°
2026-05-04 14:46 48.16209 11.24954 7802 ft 287 kts 359°
2026-05-04 14:46 48.18196 11.24913 7677 ft 286 kts
2026-05-04 14:47 48.20103 11.25621 7553 ft 283 kts 29°
2026-05-04 14:47 48.21598 11.27494 7366 ft 281 kts 51°
2026-05-04 14:47 48.22795 11.29811 7164 ft 279 kts 54°
2026-05-04 14:47 48.23928 11.32114 6959 ft 270 kts 54°
2026-05-04 14:48 48.25021 11.34354 6762 ft 262 kts 54°
2026-05-04 14:48 48.26083 11.36537 6505 ft 256 kts 54°
2026-05-04 14:48 48.27125 11.38685 6249 ft 251 kts 54°
2026-05-04 14:48 48.28128 11.40758 6003 ft 241 kts 54°
2026-05-04 14:49 48.29092 11.42748 5770 ft 232 kts 54°
2026-05-04 14:49 48.30028 11.44678 5466 ft 227 kts 55°
2026-05-04 14:49 48.30949 11.46575 5136 ft 223 kts 54°
2026-05-04 14:49 48.31798 11.48483 4883 ft 216 kts 65°
2026-05-04 14:50 48.32148 11.50636 4669 ft 212 kts 83°
2026-05-04 14:50 48.32318 11.52825 4398 ft 210 kts 83°
2026-05-04 14:50 48.32487 11.55004 4122 ft 209 kts 83°
2026-05-04 14:50 48.32658 11.57176 3841 ft 209 kts 83°
2026-05-04 14:51 48.32827 11.59317 3578 ft 202 kts 83°
2026-05-04 14:51 48.32989 11.61348 3309 ft 189 kts 83°
2026-05-04 14:51 48.33134 11.63215 3081 ft 171 kts 83°
2026-05-04 14:51 48.33267 11.64899 2850 ft 155 kts 83°
2026-05-04 14:52 48.33391 11.66469 2657 ft 148 kts 82°
2026-05-04 14:52 48.33510 11.67992 2459 ft 146 kts 83°
2026-05-04 14:52 48.33628 11.69499 2266 ft 145 kts 83°
2026-05-04 14:52 48.33747 11.70998 2076 ft 144 kts 83°
2026-05-04 14:53 48.33861 11.72473 1884 ft 144 kts 83°
2026-05-04 14:53 48.33977 11.73963 1701 ft 144 kts 83°
2026-05-04 14:53 48.34095 11.75454 1503 ft 143 kts 83°
2026-05-04 14:53 48.34199 11.76786 1478 ft 108 kts 84°
2026-05-04 14:54 48.34265 11.77661 1482 ft 69 kts 83°
2026-05-04 14:54 48.34317 11.78334 1481 ft 61 kts 83°
2026-05-04 14:54 48.34362 11.78909 1481 ft 45 kts 82°
2026-05-04 14:54 48.34485 11.79260 1482 ft 34 kts 53°
2026-05-04 14:55 48.34595 11.79484 1486 ft 20 kts 54°
2026-05-04 14:55 48.34680 11.79651 1486 ft 19 kts 57°
2026-05-04 14:55 48.34767 11.79708 1486 ft 14 kts 354°
2026-05-04 14:55 48.34867 11.79693 1484 ft 13 kts 354°
2026-05-04 14:56 48.34914 11.79684 1483 ft 7 kts 352°
2026-05-04 14:56 48.34974 11.79658 1482 ft 10 kts 323°
2026-05-04 14:56 48.35041 11.79594 1485 ft 13 kts 349°
2026-05-04 14:56 48.35137 11.79577 1485 ft 15 kts 353°
2026-05-04 14:57 48.35245 11.79559 1482 ft 16 kts 353°
2026-05-04 14:57 48.35358 11.79540 1485 ft 14 kts 354°
2026-05-04 14:57 48.35444 11.79525 1485 ft 13 kts 354°
2026-05-04 14:57 48.35539 11.79508 1485 ft 10 kts
2026-05-04 14:58 48.35571 11.79589 1482 ft 10 kts 78°
2026-05-04 14:58 48.35581 11.79707 1478 ft 12 kts 83°
2026-05-04 14:58 48.35582 11.79721 1485 ft 0 kts 83°